Other Public Products
Issued by NWS Grand Forks, ND

Home | Current Version | Previous Version | Text Only | Print | Product List | Glossary On
Versions: 1 2 3 4 5 6 7 8 9 10 11 12 13 14 15 16 17 18 19 20 21 22 23 24 25 26 27 28 29 30 31 32 33 34 35 36 37 38 39 40 41 42 43 44 45 46 47 48 49 50
000
FPUS83 KFGF 231031
OPUFGF
PRAIRIE TO PINES WEATHER ROUNDUP
NATIONAL WEATHER SERVICE EASTERN NORTH DAKOTA/GRAND FORKS ND
500 AM CDT WED APR 23 2014

 **SATELLITE DATA USED TO AUGMENT SKY COVER AT AUTOMATED STATIONS**
 *****  WEATHER ACROSS EASTERN NORTH DAKOTA  *****

CITY           SKY/WX    TMP DP  RH WIND       PRES   REMARKS
GRAND FORKS    MOCLDY    41  28  60 SE13      29.94S
GRAND FORKS AF CLOUDY    40  29  65 SE12      29.93F
GRAND CITY NWS   N/A     43 N/A N/A SE15        N/A
BUXTON           N/A     42  35  78 E13         N/A
DEVILS LAKE    CLOUDY    45  28  53 SE22G31   29.81F
FARGO          CLOUDY    48  29  47 SE15      29.93F
WAHPETON ARPT  CLOUDY    45  32  61 SE17      29.94F
$$

 *****  WEATHER ACROSS CENTRAL AND WESTERN NORTH DAKOTA  *****

CITY           SKY/WX    TMP DP  RH WIND       PRES   REMARKS
JAMESTOWN      LGT RAIN  44  43  96 SE21G29   29.80F
BISMARCK       CLOUDY    51  40  65 E21G31    29.65F
MINOT          CLOUDY    48  35  60 E17       29.67F
MINOT AFB      LGT RAIN  47  36  65 SE23      29.67S
GARRISON         N/A     49  45  86 SE22      29.62F
WILLISTON      CLOUDY    51  36  56 SE21G36   29.45F
DICKINSON      CLOUDY    48  37  65 E22G33    29.46F
HETTINGER      CLOUDY    51  34  52 E21G28    29.45F
$$

 *****  OTHER OBSERVATIONS NORTHEAST NORTH DAKOTA  *****

CITY           SKY/WX    TMP DP  RH WIND       PRES   REMARKS
WALHALLA       FAIR      34  32  93 SE9       29.94S
LANGDON        FAIR      37  27  65 SE17      29.88F
CAVALIER       FAIR      36  28  75 SE6       29.95S
GRAFTON        FAIR      37  28  70 SE12      29.95S
CANDO          FAIR      41  32  70 SE20      29.81F
FORT TOTTEN      N/A     44  31  60 SE14      29.95S
ROLLA          PTSUNNY   39  32  75 SE15      29.83F
RUGBY          FAIR      41  32  70 E22G29    29.74F
 ***** THE ABOVE OBSERVATIONS ARE NON NWS ARE NOT QUALITY
        CONTROLLED AND MAY MIS-REPORT RAIN FOR SNOW...
$$

 *****  OTHER OBSERVATIONS SOUTHEAST NORTH DAKOTA *****

CITY           SKY/WX    TMP DP  RH WIND       PRES   REMARKS
COOPERSTOWN    FAIR      45  32  61 SE21G26   29.85S
VALLEY CITY    LGT RAIN  43  41  93 SE16G25   29.86F
OAKES          CLOUDY    45  45 100 E21G28    29.82F
GWINNER        PTSUNNY   45  45 100 SE24G30   29.87F
BUFFALO        NOT AVBL
WYNDMERE       NOT AVBL
 ***** THE ABOVE OBSERVATIONS ARE NON NWS ARE NOT QUALITY
       CONTROLLED AND MAY MIS-REPORT RAIN FOR SNOW...
$$

  *****  WEATHER ACROSS NORTHERN MINNESOTA  *****

CITY           SKY/WX    TMP DP  RH WIND       PRES   REMARKS
FLAG ISLAND    CLEAR     32  21  64 CALM      30.05S
WARROAD        CLEAR     30  25  80 E8        30.03F WCI  23
ROSEAU         CLEAR     39  25  56 SE9       30.02S
HALLOCK        CLOUDY    39  25  56 SE12      29.97R
THF RVR FALLS  MOCLDY    36  23  60 E10       30.00R
HALSTAD          N/A     42  28  58 SE10        N/A
FOSSTON        CLOUDY    39  21  48 SE6       30.00S
BAUDETTE       CLEAR     32  22  66 SE7       30.06S
WASKISH        CLEAR     30  21  69 E5        30.05S
CROOKSTON      MOCLDY    41  28  60 SE9       29.98S
$$
  *****  WEATHER ACROSS CENTRAL AND WEST MINNESOTA  *****

CITY           SKY/WX    TMP DP  RH WIND       PRES   REMARKS
BEMIDJI        MOCLDY    32  21  64 SE6       30.03R
PARK RAPIDS    CLOUDY    38  23  55 SE7       30.02R
WADENA         CLOUDY    43  27  52 SE8       30.02S
DETROIT LAKES  CLOUDY    43  28  56 SE14      29.99F
MOORHEAD       CLOUDY    46  30  53 SE13G18   29.95F
FERGUS FALLS   CLOUDY    48  25  40 SE16      29.94F
ELBOW LAKE     CLOUDY    46  28  50 SE17G23   29.96F
MORRIS MN      LGT RAIN  43  36  75 SE16      29.98S
STAPLES        CLOUDY    41  25  52 SE5       30.04R
WHEATON        LGT RAIN  45  39  81 SE22G30   29.96F
$$
  *****  WEATHER ELSEWHERE ACROSS MINNESOTA  *****

CITY           SKY/WX    TMP DP  RH WIND       PRES   REMARKS
DULUTH         CLEAR     32  22  66 SE7       30.10S
INTRNTL FALLS  CLEAR     26  21  81 SE3       30.08F
ELY            CLEAR     21  19  93 CALM      30.11S
CLOQUET        CLEAR     30  23  74 CALM      30.10S
BRAINERD       CLOUDY    41  23  48 SE6       30.06R
HIBBING        CLEAR     24  20  84 N3        30.09S
ALEXANDRIA     CLOUDY    44  26  49 SE12      30.02R
SAINT CLOUD    CLOUDY    43  25  49 SE7       30.06R
MINNEAPOLIS    CLOUDY    43  27  53 SE12      30.09S
$$

  *****  WEATHER ACROSS SOUTH DAKOTA  *****

CITY           SKY/WX    TMP DP  RH WIND       PRES   REMARKS
SIOUX FALLS    LGT RAIN  52  36  54 SE20G29   29.91R
BROOKINGS      NOT AVBL
WATERTOWN      LGT RAIN  48  36  63 SE15G26   29.86F
HURON          CLOUDY    53  35  50 SE20G40   29.72F
SISSETON         N/A     44  40  85 S15       29.92F
ABERDEEN       CLOUDY    51  37  58 E23G32    29.76S
MITCHELL       CLOUDY    53  36  52 SE31G40   29.77F
PIERRE         CLOUDY    57  33  40 SE22G33   29.56R
MOBRIDGE       CLOUDY    55  34  45 SE21G28   29.60R
RAPID CITY     CLOUDY    53  42  66 S9        29.45F
$$

  *****  SOME WEATHER IN NEARBY STATES *****

CITY           SKY/WX    TMP DP  RH WIND       PRES   REMARKS
GLASGOW MT     MOCLDY    53  32  44 SE9       29.38R
GREAT FALLS MT CLOUDY    38  32  79 SW17      29.58S
CHEYENNE WY    MOCLDY    53  31  42 SW8       29.60F
SCOTTSBLUFF NE CLOUDY    54  43  66 E9        29.50F
OMAHA NE       PTCLDY    53  34  48 SE13      29.93S
DES MOINES IA  MOCLDY    52  32  46 E8        30.03S
DAVENPORT IA   CLEAR     36  28  73 E8        30.12R
CHICAGO IL     CLEAR     35  26  69 N7        30.13S
EAU CLAIRE WI  MOCLDY    32  27  81 NE6       30.11F
LA CROSSE WI   PTCLDY    37  27  67 SE5       30.13S
$$

  *****  SOME NATIONAL WEATHER *****

CITY           SKY/WX    TMP DP  RH WIND       PRES   REMARKS
LA GUARDIA NY  CLOUDY    51  39  63 NW20      29.54R
RALEIGH NC     MOCLDY    56  50  80 CALM      29.73R
ATLANTA GA     CLEAR     58  54  86 NW10      29.88R
NEW ORLEANS LA CLEAR     63  62  97 W3        29.94R
OKLAHOMA CITY  PTCLDY    49  42  77 SE9       29.89F
ALBUQUERQUE NM CLOUDY    60  29  30 SE5       29.85S
SALT LAKE CITY MOCLDY    42  37  82 W8        29.91R
LOS ANGELES CA FAIR      59  49  69 NE6       29.94S
BOISE ID       FAIR      34  28  79 S3        29.95R
SEATTLE WA     MOCLDY    44  40  85 S13       29.88F
$$

*** WEATHER ACROSS MANITOBA...SASKATCHEWAN AND ONTARIO ***
                ***ONTARIO***

CITY           SKY/WX    TMP DP  RH WIND       PRES   REMARKS
GERALDTON      CLEAR     19  18  93 SW2       30.10S
THUNDER BAY    PTCLDY    23  23 100 W2        30.15R
SIOUX LOOKOUT  CLEAR     23  21  93 SE2       30.09S
TORONTO        MOCLDY    37  32  81 N23G31    29.81R
BIG TROUT LK   PTCLDY    23  19  86 N2        30.10R
PICKLE LAKE    NOT AVBL
DRYDEN           N/A     32  21  64 S7        30.09R
KENORA         NOT AVBL
$$
                *** MANITOBA***

CITY           SKY/WX    TMP DP  RH WIND       PRES   REMARKS
BRANDON        CLEAR     37  32  81 E10       29.87F
DAUPHIN        CLEAR     37  34  87 E14G21    29.90F
ISLAND LAKE    PTCLDY    28  28 100 CALM      30.08R
PILOT MOUND      N/A     39  28  65 SE20        N/A
THE PAS        PTCLDY    37  30  75 E8          N/A
THOMPSON       CLEAR     28  25  86 NE10      30.12R WCI  19
WINNIPEG       CLEAR     37  23  56 SE10      29.99F
LYNN LAKE      CLEAR     25  21  86 E7        30.14R WCI  17
CHURCHILL      CLOUDY    23  21  93 N12       30.25R WCI  12
GILLAM         MOCLDY    25  18  74 NE7       30.16  WCI  17
$$
                ***SASKATCHEWAN***

CITY           SKY/WX    TMP DP  RH WIND       PRES   REMARKS
ESTEVAN        CLOUDY    46  34  61 E20G28    29.57F
KINDERSLEY     LGT RAIN  46  36  66 E21       29.42F
LLOYDMINSTER   LGT RAIN  45  36  70 SE24G32   29.49F
PRINCE ALBERT  CLOUDY    43  34  70 E15G24    29.74F
REGINA         MOCLDY    48  34  57 E25G33    29.57F
YORKTON        CLEAR     41  34  75 E18G25    29.78F



USA.gov is the U.S. government's official web portal to all federal, state and local government web resources and services.